Location: Bytom
(50.3475°N, 18.9244°E)
Time: 22:03:33
(UTC+01:00)

ISS - Pass Details

Date: 30 January 2019
Orbit: 403 x 411 km, 51.6° (Epoch: 22 February)

Event Time Altitude Azimuth Distance (km) Brightness Sun altitude
Rises 17:24:32 0° 253° (WSW) 2,329 2.6 -8.4°
Reaches altitude 10° 17:26:37 10° 253° (WSW) 1,471 0.7 -8.7°
Maximum altitude 17:29:55 88° 171° (S) 415 -3.8 -9.2°
Enters shadow 17:32:41 14° 76° (ENE) 1,251 -2.0 -9.6°
